{"data":{"norad_id":52850,"intl_designator":"2022-062W","name":"STARLINK-4187","alt_names":[],"object_type":"PAYLOAD","status":"ACTIVE","operator":null,"country":"US","launch_date":"2022-06-17","launch_site_code":"AFETR","launch_vehicle":null,"mission":null,"orbit_class":"UNKNOWN","rcs_meters":null,"size_class":null,"mass_kg":null,"dimensions":null,"purposes":["comms"],"wikipedia_slug":null,"has_3d_model":false,"image_url":null,"decayed_at":null,"tle_current":{"epoch":"2026-09-19T12:41:59.139744Z","epoch_age_seconds":150290,"freshness":"FRESH","line1":"1 52850U 22062W   26262.52915671 -.00000229  00000+0  43871-5 0  9997","line2":"2 52850  53.1596 233.4072 0001432 101.7955 258.3207 15.31701866235195","mean_motion":15.31701866,"eccentricity":0.0001432,"inclination_deg":53.1596,"raan_deg":233.4072,"arg_perigee_deg":101.7955,"mean_anomaly_deg":258.3207,"bstar":4.3871e-6,"rev_number":23519,"period_min":94.013073429265,"perigee_km":469.75367439322,"apogee_km":471.71519117157,"semimajor_km":6848.8714327824,"source":"CELESTRAK","updated_at":"2026-09-20T09:00:40.114890Z"}}}